Torna al catalogo

OPS 5390

AttivoNavigazioneSSO
NORAD 11389·PAYLOAD·🇺🇸 United States

Lanciato Jun 6, 1979 da Vandenberg Space Force Base

Loading…

Prossimi Passaggi (prossime 24 ore)

TLE

AggiornatoSource: Space-Track

Epoca: Sep 14, 2026, 03:33 UTC

1 11389U 79050A   26257.14851392  .00000083  00000-0  49719-4 0  9993
2 11389  98.6397 211.0108 0010768 238.7719 121.2409 14.29366237388414

Traccia OPS 5390 in tempo reale con AllMySat

Download on the App Store